Regional Weather Roundup
Issued by NWS

Home | Current Version | Previous Version | Text Only | Print | Product List | Glossary Off
Versions: 1 2 3 4 5 6 7 8 9 10 11 12 13 14 15 16 17 18 19 20 21 22 23 24 25 26 27 28 29 30 31 32 33 34 35 36 37 38 39 40 41 42 43 44 45 46 47 48 49 50

000
ASUS43 KBIS 101202
RWRND

NORTH DAKOTA REGIONAL WEATHER ROUNDUP
NATIONAL WEATHER SERVICE BISMARCK ND
600 AM CST SAT DEC 10 2016

NOTE: "FAIR" INDICATES FEW OR NO CLOUDS BELOW 12,000 FEET WITH NO
SIGNIFICANT WEATHER AND/OR OBSTRUCTIONS TO VISIBILITY.


NDZ001>003-009>011-017-101300-
NORTHWEST NORTH DAKOTA

CITY           SKY/WX    TMP DP  RH WIND       PRES   REMARKS
WILLISTON      CLOUDY   -12 -17  78 NE5       30.26F WCI -24
6HR MIN TEMP: -17; 6HR MAX TEMP: -12;

MINOT          CLOUDY   -18 -23  77 S3        30.35F
MINOT AFB      CLOUDY   -23 -30  72 CALM      30.35F
$$

NDZ018>021-031>035-040>046-101300-
SOUTHWEST NORTH DAKOTA

CITY           SKY/WX    TMP DP  RH WIND       PRES   REMARKS
BISMARCK       CLOUDY   -14 -18  82 E6        30.39F WCI -28
6HR MIN TEMP: -18; 6HR MAX TEMP: -13;

DICKINSON      CLOUDY    -9 -14  78 SE12      30.16F WCI -28
GARRISON         N/A     -9 -13  83 E10       30.32F WCI -27
6HR MIN TEMP: -20; 6HR MAX TEMP:  -9;

HETTINGER ARPT CLOUDY    -6 -10  83 SE12      30.18F WCI -25
$$

NDZ004>008-012>016-024-026-027-054-101300-
NORTHEAST NORTH DAKOTA

CITY           SKY/WX    TMP DP  RH WIND       PRES   REMARKS
GRAND FORKS    CLOUDY    -4 -10  75 NW3       30.52F
GRND FRKS AFB  CLOUDY   -10 -15  78 CALM      30.51S
DEVILS LAKE    CLOUDY   -18 -22  82 CALM      30.44F
$$

NDZ022-023-025-028>030-036>039-047>053-101300-
SOUTHEAST NORTH DAKOTA

CITY           SKY/WX    TMP DP  RH WIND       PRES   REMARKS
FARGO          CLOUDY    -6 -12  75 SW5       30.52F WCI -17
6HR MIN TEMP:  -8; 6HR MAX TEMP:  -6;

JAMESTOWN      CLOUDY   -14 -18  82 N5        30.42F WCI -26
$$





USA.gov is the U.S. government's official web portal to all federal, state and local government web resources and services.